Location: Unspecified
(0.0000°N, 0.0000°E)
Time: 11:13:12
(UTC+00:00)

Vanguard 2 - Pass Details

Date: 22 November 2019
Orbit: 553 x 2938 km, 32.9° (Epoch: 14 December)

Event Time Altitude Azimuth Distance (km) Brightness Sun altitude
Rises 18:01:33 0° 253° (WSW) 3,104 13.9 -3.6°
Reaches altitude 10° 18:05:17 10° 222° (SW) 2,509 11.3 -4.5°
Maximum altitude 18:07:43 12° 197° (SSW) 2,569 10.8 -5.1°
Drops below altitude 10° 18:10:33 10° 174° (S) 3,039 10.8 -5.7°
Sets 18:16:23 0° 147° (SSE) 4,633 11.4 -7.1°
